Back to catalog

CZ-6A DEB

AlivePO
NORAD 54598·DEBRIS·🇨🇳 China

Launched Nov 11, 2022 from Taiyuan Satellite Launch Center

Loading…

Next Passes (next 24 hours)

TLE

FreshSource: Space-Track

Epoch: Sep 14, 2026, 08:18 UTC

1 54598U 22151MY  26257.34609703  .00018452  00000-0  17325-2 0  9996
2 54598  98.9035  28.8915 0036067 312.9370  46.8822 14.93529198203980

Track CZ-6A DEB in real time with AllMySat

Download on the App Store